Voltar ao catálogo

COSMOS 1017

AtivoNavegaçãoLEO
NORAD 10934·PAYLOAD·🇷🇺 Russia

Lançado Jun 7, 1978 de Plesetsk Cosmodrome

Loading…

Próximas Passagens (próximas 24 horas)

TLE

AtualizadoSource: Space-Track

Época: Sep 14, 2026, 14:07 UTC

1 10934U 78056E   26257.58885184 -.00000001  00000-0  96688-4 0  9995
2 10934  74.0275 310.4500 0020924  63.5618 104.3939 12.47612961198425

Acompanhe COSMOS 1017 em tempo real com AllMySat

Download on the App Store